Time,TemperatureF,DewpointF,PressureIn,WindDirection,WindDirectionDegrees,WindSpeedMPH,WindSpeedGustMPH,Humidity,HourlyPrecipIn,Conditions,Clouds,dailyrainin,SoftwareType,DateUTC
2013-02-04 00:03:00,32.5,27.0,29.35,North,356,3.0,24.0,80,0.00,,,0.00,Wunderground v.1.15,2013-02-04 09:03:00,
2013-02-04 00:09:00,32.7,27.2,29.36,NNE,15,4.0,24.0,80,0.00,,,0.00,Wunderground v.1.15,2013-02-04 09:09:00,
2013-02-04 00:15:00,32.9,27.1,29.36,NNE,32,3.0,24.0,79,0.00,,,0.00,Wunderground v.1.15,2013-02-04 09:15:00,
2013-02-04 00:20:00,33.1,27.3,29.36,NNE,25,3.0,24.0,79,0.00,,,0.00,Wunderground v.1.15,2013-02-04 09:20:00,
2013-02-04 00:26:00,33.3,27.5,29.36,NNE,25,4.0,24.0,79,0.00,,,0.00,Wunderground v.1.15,2013-02-04 09:26:00,
2013-02-04 00:32:00,33.3,27.5,29.36,NNE,29,3.0,24.0,79,0.00,,,0.00,Wunderground v.1.15,2013-02-04 09:32:00,
2013-02-04 00:38:00,33.5,27.4,29.36,NE,51,3.0,24.0,78,0.00,,,0.00,Wunderground v.1.15,2013-02-04 09:38:00,
2013-02-04 00:44:00,33.5,27.4,29.36,NE,36,3.0,24.0,78,0.00,,,0.00,Wunderground v.1.15,2013-02-04 09:44:00,
2013-02-04 00:50:00,33.7,27.3,29.36,NE,34,3.0,3.0,77,0.00,,,0.00,Wunderground v.1.15,2013-02-04 09:50:00,
2013-02-04 00:56:00,33.7,27.3,29.36,NE,40,3.0,24.0,77,0.00,,,0.00,Wunderground v.1.15,2013-02-04 09:56:00,
2013-02-04 01:01:00,33.8,27.0,29.37,NNE,12,3.0,24.0,76,0.00,,,0.00,Wunderground v.1.15,2013-02-04 10:01:00,
2013-02-04 01:07:00,33.9,27.1,29.37,NNE,25,3.0,24.0,76,0.00,,,0.00,Wunderground v.1.15,2013-02-04 10:07:00,
2013-02-04 01:13:00,33.8,27.0,29.37,NE,36,3.0,24.0,76,0.00,,,0.00,Wunderground v.1.15,2013-02-04 10:13:00,
2013-02-04 01:19:00,33.8,27.4,29.37,NNE,25,3.0,24.0,77,0.00,,,0.00,Wunderground v.1.15,2013-02-04 10:19:00,
2013-02-04 01:24:00,33.9,27.1,29.37,NNE,22,3.0,24.0,76,0.00,,,0.00,Wunderground v.1.15,2013-02-04 10:24:00,
2013-02-04 01:30:00,33.8,27.0,29.37,ENE,62,4.0,4.0,76,0.00,,,0.00,Wunderground v.1.15,2013-02-04 10:30:00,
2013-02-04 01:36:00,34.0,27.2,29.37,East,92,3.0,24.0,76,0.00,,,0.00,Wunderground v.1.15,2013-02-04 10:36:00,
2013-02-04 01:42:00,34.2,27.4,29.38,NNE,15,3.0,24.0,76,0.00,,,0.00,Wunderground v.1.15,2013-02-04 10:42:00,
2013-02-04 01:48:00,34.2,27.4,29.38,North,6,3.0,24.0,76,0.00,,,0.00,Wunderground v.1.15,2013-02-04 10:48:00,
2013-02-04 01:54:00,34.2,27.4,29.37,NNE,19,3.0,24.0,76,0.00,,,0.00,Wunderground v.1.15,2013-02-04 10:54:00,
2013-02-04 02:00:00,34.3,27.8,29.38,East,101,3.0,3.0,77,0.00,,,0.00,Wunderground v.1.15,2013-02-04 11:00:00,
2013-02-04 02:05:00,34.2,27.7,29.38,ENE,58,3.0,24.0,77,0.00,,,0.00,Wunderground v.1.15,2013-02-04 11:05:00,
2013-02-04 02:11:00,34.2,27.7,29.38,NE,34,2.0,3.0,77,0.00,,,0.00,Wunderground v.1.15,2013-02-04 11:11:00,
2013-02-04 02:17:00,34.1,27.6,29.38,East,91,2.0,24.0,77,0.00,,,0.00,Wunderground v.1.15,2013-02-04 11:17:00,
2013-02-04 02:23:00,34.1,27.6,29.38,ENE,78,1.0,24.0,77,0.00,,,0.00,Wunderground v.1.15,2013-02-04 11:23:00,
2013-02-04 02:28:00,34.1,27.6,29.38,East,84,1.0,24.0,77,0.00,,,0.00,Wunderground v.1.15,2013-02-04 11:28:00,
2013-02-04 02:34:00,34.0,27.5,29.38,East,84,1.0,24.0,77,0.00,,,0.00,Wunderground v.1.15,2013-02-04 11:34:00,
2013-02-04 02:40:00,33.9,27.4,29.38,East,81,1.0,24.0,77,0.00,,,0.00,Wunderground v.1.15,2013-02-04 11:40:00,
2013-02-04 02:46:00,33.7,27.6,29.38,NNE,27,1.0,24.0,78,0.00,,,0.00,Wunderground v.1.15,2013-02-04 11:46:00,
2013-02-04 02:52:00,33.7,27.6,29.38,NNE,29,2.0,24.0,78,0.00,,,0.00,Wunderground v.1.15,2013-02-04 11:52:00,
2013-02-04 02:58:00,33.7,28.2,29.38,NNE,31,2.0,24.0,80,0.00,,,0.00,Wunderground v.1.15,2013-02-04 11:58:00,
2013-02-04 03:04:00,33.7,28.2,29.38,ENE,60,3.0,24.0,80,0.00,,,0.00,Wunderground v.1.15,2013-02-04 12:04:00,
2013-02-04 03:09:00,33.6,28.7,29.38,ENE,77,3.0,24.0,82,0.00,,,0.00,Wunderground v.1.15,2013-02-04 12:09:00,
2013-02-04 03:15:00,33.3,28.7,29.38,NNE,29,3.0,24.0,83,0.00,,,0.00,Wunderground v.1.15,2013-02-04 12:15:00,
2013-02-04 03:21:00,33.0,28.7,29.38,East,88,4.0,24.0,84,0.00,,,0.00,Wunderground v.1.15,2013-02-04 12:21:00,
2013-02-04 03:27:00,32.9,28.9,29.38,NNE,25,4.0,24.0,85,0.00,,,0.00,Wunderground v.1.15,2013-02-04 12:27:00,
2013-02-04 03:32:00,32.9,28.9,29.39,ENE,67,3.0,24.0,85,0.00,,,0.00,Wunderground v.1.15,2013-02-04 12:32:00,
2013-02-04 03:38:00,32.8,28.8,29.39,NE,51,3.0,24.0,85,0.00,,,0.00,Wunderground v.1.15,2013-02-04 12:38:00,
2013-02-04 03:44:00,32.8,28.8,29.38,NNE,29,3.0,24.0,85,0.00,,,0.00,Wunderground v.1.15,2013-02-04 12:44:00,
2013-02-04 03:50:00,32.8,28.8,29.38,NE,38,3.0,3.0,85,0.00,,,0.00,Wunderground v.1.15,2013-02-04 12:50:00,
2013-02-04 03:56:00,32.9,28.6,29.39,ENE,65,3.0,24.0,84,0.00,,,0.00,Wunderground v.1.15,2013-02-04 12:56:00,
2013-02-04 04:02:00,32.9,28.6,29.39,NE,49,2.0,24.0,84,0.00,,,0.00,Wunderground v.1.15,2013-02-04 13:02:00,
2013-02-04 04:08:00,33.1,28.8,29.39,ENE,70,2.0,24.0,84,0.00,,,0.00,Wunderground v.1.15,2013-02-04 13:08:00,
2013-02-04 04:13:00,33.1,28.8,29.39,NE,49,2.0,24.0,84,0.00,,,0.00,Wunderground v.1.15,2013-02-04 13:13:00,
2013-02-04 04:19:00,33.1,28.8,29.39,ENE,60,3.0,24.0,84,0.00,,,0.00,Wunderground v.1.15,2013-02-04 13:19:00,
2013-02-04 04:25:00,33.0,28.7,29.39,NE,47,3.0,24.0,84,0.00,,,0.00,Wunderground v.1.15,2013-02-04 13:25:00,
2013-02-04 04:31:00,33.0,28.7,29.39,NE,52,3.0,24.0,84,0.00,,,0.00,Wunderground v.1.15,2013-02-04 13:31:00,
2013-02-04 04:37:00,32.9,28.6,29.39,NNE,16,3.0,24.0,84,0.00,,,0.00,Wunderground v.1.15,2013-02-04 13:37:00,
2013-02-04 04:43:00,32.8,28.8,29.39,NNE,20,3.0,24.0,85,0.00,,,0.00,Wunderground v.1.15,2013-02-04 13:43:00,
2013-02-04 04:49:00,32.8,28.8,29.39,ENE,66,3.0,24.0,85,0.00,,,0.00,Wunderground v.1.15,2013-02-04 13:49:00,
2013-02-04 04:55:00,32.8,29.1,29.39,NNE,20,3.0,24.0,86,0.00,,,0.00,Wunderground v.1.15,2013-02-04 13:55:00,
2013-02-04 05:00:00,32.7,29.0,29.40,ENE,75,3.0,5.0,86,0.00,,,0.00,Wunderground v.1.15,2013-02-04 14:00:00,
2013-02-04 05:06:00,32.7,29.0,29.40,NE,42,3.0,5.0,86,0.00,,,0.00,Wunderground v.1.15,2013-02-04 14:06:00,
2013-02-04 05:12:00,32.7,29.0,29.40,NE,51,2.0,3.0,86,0.00,,,0.00,Wunderground v.1.15,2013-02-04 14:12:00,
2013-02-04 05:18:00,32.6,29.2,29.40,ENE,62,2.0,3.0,87,0.00,,,0.00,Wunderground v.1.15,2013-02-04 14:18:00,
2013-02-04 05:23:00,32.5,29.1,29.40,NE,36,3.0,4.0,87,0.00,,,0.00,Wunderground v.1.15,2013-02-04 14:23:00,
2013-02-04 05:29:00,32.4,29.0,29.40,NE,38,3.0,4.0,87,0.00,,,0.00,Wunderground v.1.15,2013-02-04 14:29:00,
2013-02-04 05:35:00,32.4,29.0,29.40,NNE,30,3.0,4.0,87,0.00,,,0.00,Wunderground v.1.15,2013-02-04 14:35:00,
2013-02-04 05:40:00,32.3,29.1,29.40,NNE,23,3.0,5.0,88,0.00,,,0.00,Wunderground v.1.15,2013-02-04 14:40:00,
2013-02-04 05:45:00,32.3,28.9,29.40,NNE,20,3.0,5.0,87,0.00,,,0.00,Wunderground v.1.15,2013-02-04 14:45:00,
2013-02-04 05:51:00,32.3,29.1,29.40,NNE,30,3.0,5.0,88,0.00,,,0.00,Wunderground v.1.15,2013-02-04 14:51:00,
2013-02-04 05:57:00,32.2,29.0,29.40,North,4,3.0,6.0,88,0.00,,,0.00,Wunderground v.1.15,2013-02-04 14:57:00,
2013-02-04 06:02:00,32.1,28.9,29.40,NE,41,3.0,9.0,88,0.00,,,0.00,Wunderground v.1.15,2013-02-04 15:02:00,
2013-02-04 06:08:00,32.0,29.1,29.40,NNE,31,3.0,9.0,89,0.00,,,0.00,Wunderground v.1.15,2013-02-04 15:08:00,
2013-02-04 06:14:00,32.0,29.1,29.40,NNE,31,3.0,9.0,89,0.00,,,0.00,Wunderground v.1.15,2013-02-04 15:14:00,
2013-02-04 06:19:00,32.0,29.1,29.40,NE,36,2.0,9.0,89,0.00,,,0.00,Wunderground v.1.15,2013-02-04 15:19:00,
2013-02-04 06:25:00,32.0,29.1,29.40,NE,49,3.0,9.0,89,0.00,,,0.00,Wunderground v.1.15,2013-02-04 15:25:00,
2013-02-04 06:31:00,32.1,29.2,29.40,NE,51,4.0,9.0,89,0.00,,,0.00,Wunderground v.1.15,2013-02-04 15:31:00,
2013-02-04 06:37:00,32.2,29.3,29.40,ENE,75,3.0,9.0,89,0.00,,,0.00,Wunderground v.1.15,2013-02-04 15:37:00,
2013-02-04 06:43:00,32.3,29.1,29.40,NE,34,3.0,9.0,88,0.00,,,0.00,Wunderground v.1.15,2013-02-04 15:43:00,
2013-02-04 06:49:00,32.3,29.1,29.40,NE,36,3.0,9.0,88,0.00,,,0.00,Wunderground v.1.15,2013-02-04 15:49:00,
2013-02-04 06:55:00,32.3,29.1,29.40,NNE,23,3.0,9.0,88,0.00,,,0.00,Wunderground v.1.15,2013-02-04 15:55:00,
2013-02-04 07:00:00,32.4,29.0,29.40,NE,40,3.0,3.0,87,0.00,,,0.00,Wunderground v.1.15,2013-02-04 16:00:00,
2013-02-04 07:06:00,32.4,29.0,29.40,ENE,61,2.0,9.0,87,0.00,,,0.00,Wunderground v.1.15,2013-02-04 16:06:00,
2013-02-04 07:12:00,32.3,29.1,29.40,NE,49,2.0,9.0,88,0.00,,,0.00,Wunderground v.1.15,2013-02-04 16:12:00,
2013-02-04 07:18:00,32.3,29.1,29.41,NE,45,2.0,9.0,88,0.00,,,0.00,Wunderground v.1.15,2013-02-04 16:18:00,
2013-02-04 07:23:00,32.3,29.1,29.41,ENE,68,2.0,9.0,88,0.00,,,0.00,Wunderground v.1.15,2013-02-04 16:23:00,
2013-02-04 07:29:00,32.3,29.1,29.41,ENE,65,2.0,9.0,88,0.00,,,0.00,Wunderground v.1.15,2013-02-04 16:29:00,
2013-02-04 07:35:00,32.3,29.1,29.41,ENE,70,2.0,9.0,88,0.00,,,0.00,Wunderground v.1.15,2013-02-04 16:35:00,
2013-02-04 07:41:00,32.3,29.1,29.41,ENE,58,2.0,9.0,88,0.00,,,0.00,Wunderground v.1.15,2013-02-04 16:41:00,
2013-02-04 07:47:00,32.3,29.1,29.41,NE,39,3.0,9.0,88,0.00,,,0.00,Wunderground v.1.15,2013-02-04 16:47:00,
2013-02-04 07:53:00,32.2,29.0,29.41,NE,41,3.0,9.0,88,0.00,,,0.00,Wunderground v.1.15,2013-02-04 16:53:00,
2013-02-04 07:59:00,32.2,29.0,29.41,NNE,15,3.0,9.0,88,0.00,,,0.00,Wunderground v.1.15,2013-02-04 16:59:00,
2013-02-04 08:04:00,32.2,29.0,29.42,NNE,30,3.0,9.0,88,0.00,,,0.00,Wunderground v.1.15,2013-02-04 17:04:00,
2013-02-04 08:10:00,32.1,28.9,29.42,NNE,31,3.0,9.0,88,0.00,,,0.00,Wunderground v.1.15,2013-02-04 17:10:00,
2013-02-04 08:16:00,32.0,29.1,29.42,NE,34,3.0,9.0,89,0.00,,,0.00,Wunderground v.1.15,2013-02-04 17:16:00,
2013-02-04 08:22:00,32.0,29.1,29.42,East,101,3.0,9.0,89,0.00,,,0.00,Wunderground v.1.15,2013-02-04 17:22:00,
2013-02-04 08:27:00,31.9,29.3,29.42,ESE,107,4.0,9.0,90,0.00,,,0.00,Wunderground v.1.15,2013-02-04 17:27:00,
2013-02-04 08:33:00,31.8,29.2,29.42,East,80,4.0,9.0,90,0.00,,,0.00,Wunderground v.1.15,2013-02-04 17:33:00,
2013-02-04 08:39:00,31.8,29.2,29.42,NE,38,3.0,9.0,90,0.00,,,0.00,Wunderground v.1.15,2013-02-04 17:39:00,
2013-02-04 08:45:00,31.9,29.3,29.43,NNE,20,3.0,9.0,90,0.00,,,0.00,Wunderground v.1.15,2013-02-04 17:45:00,
2013-02-04 08:51:00,31.9,29.3,29.43,North,5,2.0,9.0,90,0.00,,,0.00,Wunderground v.1.15,2013-02-04 17:51:00,
2013-02-04 08:57:00,31.9,29.0,29.43,NNE,25,3.0,9.0,89,0.00,,,0.00,Wunderground v.1.15,2013-02-04 17:57:00,
2013-02-04 09:02:00,31.9,29.0,29.43,NNE,18,3.0,9.0,89,0.00,,,0.00,Wunderground v.1.15,2013-02-04 18:02:00,
2013-02-04 09:08:00,31.9,29.0,29.43,NNW,331,3.0,9.0,89,0.00,,,0.00,Wunderground v.1.15,2013-02-04 18:08:00,
2013-02-04 09:14:00,32.0,29.1,29.43,NNE,16,4.0,9.0,89,0.00,,,0.00,Wunderground v.1.15,2013-02-04 18:14:00,
2013-02-04 09:19:00,32.1,29.2,29.43,NNE,25,5.0,9.0,89,0.00,,,0.00,Wunderground v.1.15,2013-02-04 18:19:00,
2013-02-04 09:25:00,32.1,29.2,29.43,NE,49,3.0,9.0,89,0.00,,,0.00,Wunderground v.1.15,2013-02-04 18:25:00,
2013-02-04 09:31:00,32.3,29.1,29.44,NE,46,2.0,9.0,88,0.00,,,0.00,Wunderground v.1.15,2013-02-04 18:31:00,
2013-02-04 09:37:00,32.5,29.3,29.44,NE,51,2.0,9.0,88,0.00,,,0.00,Wunderground v.1.15,2013-02-04 18:37:00,
2013-02-04 09:42:00,32.6,29.4,29.44,NNE,27,2.0,9.0,88,0.00,,,0.00,Wunderground v.1.15,2013-02-04 18:42:00,
2013-02-04 09:48:00,32.7,29.3,29.44,NE,41,2.0,9.0,87,0.00,,,0.00,Wunderground v.1.15,2013-02-04 18:48:00,
2013-02-04 09:54:00,32.7,29.3,29.45,NNE,22,2.0,9.0,87,0.00,,,0.00,Wunderground v.1.15,2013-02-04 18:54:00,
2013-02-04 10:00:00,32.7,29.3,29.45,NE,42,2.0,9.0,87,0.00,,,0.00,Wunderground v.1.15,2013-02-04 19:00:00,
2013-02-04 10:05:00,32.8,29.4,29.45,NE,38,2.0,9.0,87,0.00,,,0.00,Wunderground v.1.15,2013-02-04 19:05:00,
2013-02-04 10:11:00,32.9,29.5,29.46,ENE,60,2.0,9.0,87,0.00,,,0.00,Wunderground v.1.15,2013-02-04 19:11:00,
2013-02-04 10:17:00,32.9,29.2,29.46,NNE,21,2.0,9.0,86,0.00,,,0.00,Wunderground v.1.15,2013-02-04 19:17:00,
2013-02-04 10:23:00,33.0,29.3,29.46,SE,138,1.0,9.0,86,0.00,,,0.00,Wunderground v.1.15,2013-02-04 19:23:00,
2013-02-04 10:28:00,33.2,29.2,29.46,NE,40,1.0,9.0,85,0.00,,,0.00,Wunderground v.1.15,2013-02-04 19:28:00,
2013-02-04 10:34:00,33.5,29.2,29.47,East,86,1.0,9.0,84,0.00,,,0.00,Wunderground v.1.15,2013-02-04 19:34:00,
2013-02-04 10:40:00,33.6,29.3,29.47,ENE,78,0.0,9.0,84,0.00,,,0.00,Wunderground v.1.15,2013-02-04 19:40:00,
2013-02-04 10:46:00,34.0,29.1,29.47,ESE,113,1.0,9.0,82,0.00,,,0.00,Wunderground v.1.15,2013-02-04 19:46:00,
2013-02-04 10:51:00,34.1,29.2,29.47,ESE,111,1.0,9.0,82,0.00,,,0.00,Wunderground v.1.15,2013-02-04 19:51:00,
2013-02-04 10:57:00,34.0,29.1,29.47,NNE,32,0.0,9.0,82,0.00,,,0.00,Wunderground v.1.15,2013-02-04 19:57:00,
2013-02-04 11:03:00,33.9,29.3,29.47,NNE,27,1.0,9.0,83,0.00,,,0.00,Wunderground v.1.15,2013-02-04 20:03:00,
2013-02-04 11:08:00,33.8,29.2,29.47,NE,51,2.0,9.0,83,0.00,,,0.00,Wunderground v.1.15,2013-02-04 20:08:00,
2013-02-04 11:14:00,33.9,29.3,29.47,NNE,32,2.0,9.0,83,0.00,,,0.00,Wunderground v.1.15,2013-02-04 20:14:00,
2013-02-04 11:20:00,33.9,29.0,29.47,North,359,1.0,9.0,82,0.00,,,0.00,Wunderground v.1.15,2013-02-04 20:20:00,
2013-02-04 11:25:00,33.9,29.0,29.47,NNE,27,2.0,9.0,82,0.00,,,0.00,Wunderground v.1.15,2013-02-04 20:25:00,
2013-02-04 11:30:00,34.0,29.1,29.47,NE,39,3.0,3.0,82,0.00,,,0.00,Wunderground v.1.15,2013-02-04 20:30:00,
2013-02-04 11:36:00,33.9,29.0,29.47,NE,37,2.0,9.0,82,0.00,,,0.00,Wunderground v.1.15,2013-02-04 20:36:00,
2013-02-04 11:42:00,33.9,29.0,29.47,NNE,18,3.0,9.0,82,0.00,,,0.00,Wunderground v.1.15,2013-02-04 20:42:00,
2013-02-04 11:48:00,34.0,29.1,29.48,North,8,5.0,9.0,82,0.00,,,0.00,Wunderground v.1.15,2013-02-04 20:48:00,
2013-02-04 11:53:00,34.0,29.1,29.48,North,354,5.0,9.0,82,0.00,,,0.00,Wunderground v.1.15,2013-02-04 20:53:00,
2013-02-04 11:58:00,34.2,29.0,29.48,North,11,6.0,9.0,81,0.00,,,0.00,Wunderground v.1.15,2013-02-04 20:58:00,
2013-02-04 12:03:00,34.5,29.3,29.48,NNE,22,5.0,9.0,81,0.00,,,0.00,Wunderground v.1.15,2013-02-04 21:03:00,
2013-02-04 12:09:00,34.7,29.5,29.48,NE,42,3.0,9.0,81,0.00,,,0.00,Wunderground v.1.15,2013-02-04 21:09:00,
2013-02-04 12:15:00,35.1,29.6,29.48,East,79,2.0,9.0,80,0.00,,,0.00,Wunderground v.1.15,2013-02-04 21:15:00,
2013-02-04 12:20:00,35.2,29.3,29.48,ENE,58,2.0,2.0,79,0.00,,,0.00,Wunderground v.1.15,2013-02-04 21:20:00,
2013-02-04 12:26:00,35.3,29.4,29.48,NE,37,3.0,9.0,79,0.00,,,0.00,Wunderground v.1.15,2013-02-04 21:26:00,
2013-02-04 12:32:00,35.6,29.4,29.49,NE,44,2.0,9.0,78,0.00,,,0.00,Wunderground v.1.15,2013-02-04 21:32:00,
2013-02-04 12:38:00,35.8,29.6,29.49,ENE,66,2.0,9.0,78,0.00,,,0.00,Wunderground v.1.15,2013-02-04 21:38:00,
2013-02-04 12:43:00,36.0,29.5,29.49,NE,51,1.0,9.0,77,0.00,,,0.00,Wunderground v.1.15,2013-02-04 21:43:00,
2013-02-04 12:49:00,36.1,28.9,29.49,ENE,68,2.0,9.0,75,0.00,,,0.00,Wunderground v.1.15,2013-02-04 21:49:00,
2013-02-04 12:55:00,36.4,28.2,29.49,ESE,113,2.0,9.0,72,0.00,,,0.00,Wunderground v.1.15,2013-02-04 21:55:00,
2013-02-04 13:01:00,36.7,28.2,29.49,ESE,107,4.0,9.0,71,0.00,,,0.00,Wunderground v.1.15,2013-02-04 22:01:00,
2013-02-04 13:06:00,36.8,28.3,29.49,East,95,5.0,9.0,71,0.00,,,0.00,Wunderground v.1.15,2013-02-04 22:06:00,
2013-02-04 13:12:00,37.0,27.8,29.49,ESE,111,5.0,9.0,69,0.00,,,0.00,Wunderground v.1.15,2013-02-04 22:12:00,
2013-02-04 13:18:00,37.2,27.6,29.49,East,82,6.0,9.0,68,0.00,,,0.00,Wunderground v.1.15,2013-02-04 22:18:00,
2013-02-04 13:24:00,37.2,28.0,29.50,ESE,105,6.0,9.0,69,0.00,,,0.00,Wunderground v.1.15,2013-02-04 22:24:00,
2013-02-04 13:29:00,37.1,28.2,29.50,SE,137,6.0,12.0,70,0.00,,,0.00,Wunderground v.1.15,2013-02-04 22:29:00,
2013-02-04 13:35:00,37.0,27.8,29.50,ESE,113,6.0,9.0,69,0.00,,,0.00,Wunderground v.1.15,2013-02-04 22:35:00,
2013-02-04 13:41:00,36.9,28.0,29.50,South,191,5.0,9.0,70,0.00,,,0.00,Wunderground v.1.15,2013-02-04 22:41:00,
2013-02-04 13:47:00,37.0,28.1,29.50,SE,145,4.0,9.0,70,0.00,,,0.00,Wunderground v.1.15,2013-02-04 22:47:00,
2013-02-04 13:52:00,37.0,27.4,29.50,SE,135,4.0,9.0,68,0.00,,,0.00,Wunderground v.1.15,2013-02-04 22:52:00,
2013-02-04 13:58:00,37.0,28.5,29.50,SE,129,5.0,12.0,71,0.00,,,0.00,Wunderground v.1.15,2013-02-04 22:58:00,
2013-02-04 14:04:00,36.9,28.4,29.50,SSE,152,4.0,9.0,71,0.00,,,0.00,Wunderground v.1.15,2013-02-04 23:04:00,
2013-02-04 14:10:00,36.9,28.0,29.50,SSE,163,3.0,9.0,70,0.00,,,0.00,Wunderground v.1.15,2013-02-04 23:10:00,
2013-02-04 14:16:00,36.8,27.6,29.50,ESE,107,2.0,9.0,69,0.00,,,0.00,Wunderground v.1.15,2013-02-04 23:16:00,
2013-02-04 14:21:00,36.8,27.6,29.50,SE,125,2.0,9.0,69,0.00,,,0.00,Wunderground v.1.15,2013-02-04 23:21:00,
2013-02-04 14:27:00,36.8,27.6,29.50,South,181,1.0,9.0,69,0.00,,,0.00,Wunderground v.1.15,2013-02-04 23:27:00,
2013-02-04 14:32:00,36.9,27.7,29.50,SSE,148,1.0,9.0,69,0.00,,,0.00,Wunderground v.1.15,2013-02-04 23:32:00,
2013-02-04 14:37:00,36.9,27.3,29.50,ESE,111,2.0,9.0,68,0.00,,,0.00,Wunderground v.1.15,2013-02-04 23:37:00,
2013-02-04 14:43:00,36.8,27.6,29.50,ENE,73,3.0,9.0,69,0.00,,,0.00,Wunderground v.1.15,2013-02-04 23:43:00,
2013-02-04 14:49:00,36.7,27.1,29.50,ESE,108,4.0,9.0,68,0.00,,,0.00,Wunderground v.1.15,2013-02-04 23:49:00,
2013-02-04 14:55:00,36.7,27.1,29.50,ESE,105,5.0,11.0,68,0.00,,,0.00,Wunderground v.1.15,2013-02-04 23:55:00,
2013-02-04 15:01:00,36.7,27.1,29.50,ENE,74,7.0,9.0,68,0.00,,,0.00,Wunderground v.1.15,2013-02-05 00:01:00,
2013-02-04 15:07:00,36.5,27.3,29.50,ENE,72,5.0,9.0,69,0.00,,,0.00,Wunderground v.1.15,2013-02-05 00:07:00,
2013-02-04 15:13:00,36.4,27.5,29.50,East,81,3.0,9.0,70,0.00,,,0.00,Wunderground v.1.15,2013-02-05 00:13:00,
2013-02-04 15:18:00,36.6,27.0,29.50,ENE,71,5.0,11.0,68,0.00,,,0.00,Wunderground v.1.15,2013-02-05 00:18:00,
2013-02-04 15:23:00,36.6,27.0,29.50,NE,40,7.0,9.0,68,0.00,,,0.00,Wunderground v.1.15,2013-02-05 00:23:00,
2013-02-04 15:28:00,36.6,27.0,29.50,East,82,6.0,10.0,68,0.00,,,0.00,Wunderground v.1.15,2013-02-05 00:28:00,
2013-02-04 15:34:00,36.6,27.0,29.50,ENE,75,6.0,9.0,68,0.00,,,0.00,Wunderground v.1.15,2013-02-05 00:34:00,
2013-02-04 15:40:00,36.4,27.2,29.50,East,83,3.0,3.0,69,0.00,,,0.00,Wunderground v.1.15,2013-02-05 00:40:00,
2013-02-04 15:46:00,36.2,27.0,29.50,East,80,2.0,9.0,69,0.00,,,0.00,Wunderground v.1.15,2013-02-05 00:46:00,
2013-02-04 15:51:00,36.1,26.9,29.50,ENE,68,2.0,3.0,69,0.00,,,0.00,Wunderground v.1.15,2013-02-05 00:51:00,
2013-02-04 15:57:00,35.9,27.1,29.50,ENE,75,2.0,9.0,70,0.00,,,0.00,Wunderground v.1.15,2013-02-05 00:57:00,
2013-02-04 16:03:00,35.9,27.1,29.50,ENE,65,2.0,9.0,70,0.00,,,0.00,Wunderground v.1.15,2013-02-05 01:03:00,
2013-02-04 16:09:00,35.9,27.1,29.50,NE,44,2.0,9.0,70,0.00,,,0.00,Wunderground v.1.15,2013-02-05 01:09:00,
2013-02-04 16:14:00,35.8,27.0,29.51,East,99,3.0,9.0,70,0.00,,,0.00,Wunderground v.1.15,2013-02-05 01:14:00,
2013-02-04 16:20:00,36.1,26.6,29.51,ENE,75,7.0,9.0,68,0.00,,,0.00,Wunderground v.1.15,2013-02-05 01:20:00,
2013-02-04 16:26:00,36.2,26.6,29.51,ENE,59,9.0,12.0,68,0.00,,,0.00,Wunderground v.1.15,2013-02-05 01:26:00,
2013-02-04 16:31:00,36.1,26.6,29.50,ENE,75,7.0,9.0,68,0.00,,,0.00,Wunderground v.1.15,2013-02-05 01:31:00,
2013-02-04 16:37:00,36.3,26.4,29.51,NE,49,7.0,9.0,67,0.00,,,0.00,Wunderground v.1.15,2013-02-05 01:37:00,
2013-02-04 16:43:00,36.1,26.6,29.51,ENE,66,6.0,9.0,68,0.00,,,0.00,Wunderground v.1.15,2013-02-05 01:43:00,
2013-02-04 16:49:00,36.1,26.2,29.51,East,91,5.0,9.0,67,0.00,,,0.00,Wunderground v.1.15,2013-02-05 01:49:00,
2013-02-04 16:55:00,36.1,26.2,29.51,East,101,6.0,9.0,67,0.00,,,0.00,Wunderground v.1.15,2013-02-05 01:55:00,
2013-02-04 17:00:00,36.0,26.1,29.51,ESE,116,5.0,5.0,67,0.00,,,0.00,Wunderground v.1.15,2013-02-05 02:00:00,
2013-02-04 17:06:00,35.8,25.9,29.51,SE,129,3.0,9.0,67,0.00,,,0.00,Wunderground v.1.15,2013-02-05 02:06:00,
2013-02-04 17:12:00,36.0,25.7,29.51,SE,124,3.0,6.0,66,0.00,,,0.00,Wunderground v.1.15,2013-02-05 02:12:00,
2013-02-04 17:18:00,35.9,26.0,29.51,ENE,60,3.0,9.0,67,0.00,,,0.00,Wunderground v.1.15,2013-02-05 02:18:00,
2013-02-04 17:24:00,35.5,26.3,29.51,NNE,27,2.0,9.0,69,0.00,,,0.00,Wunderground v.1.15,2013-02-05 02:24:00,
2013-02-04 17:30:00,35.2,26.4,29.51,ENE,69,1.0,9.0,70,0.00,,,0.00,Wunderground v.1.15,2013-02-05 02:30:00,
2013-02-04 17:36:00,35.2,26.4,29.51,ENE,70,1.0,9.0,70,0.00,,,0.00,Wunderground v.1.15,2013-02-05 02:36:00,
2013-02-04 17:41:00,34.8,26.0,29.52,NE,54,1.0,5.0,70,0.00,,,0.00,Wunderground v.1.15,2013-02-05 02:41:00,
2013-02-04 17:47:00,35.0,26.2,29.52,ENE,63,2.0,9.0,70,0.00,,,0.00,Wunderground v.1.15,2013-02-05 02:47:00,
2013-02-04 17:53:00,34.9,26.1,29.51,NE,44,2.0,9.0,70,0.00,,,0.00,Wunderground v.1.15,2013-02-05 02:53:00,
2013-02-04 17:59:00,34.4,26.0,29.52,ENE,78,1.0,9.0,71,0.00,,,0.00,Wunderground v.1.15,2013-02-05 02:59:00,
2013-02-04 18:04:00,34.4,26.0,29.52,South,170,1.0,9.0,71,0.00,,,0.00,Wunderground v.1.15,2013-02-05 03:04:00,
2013-02-04 18:10:00,34.5,25.7,29.52,East,93,1.0,9.0,70,0.00,,,0.00,Wunderground v.1.15,2013-02-05 03:10:00,
2013-02-04 18:16:00,34.7,25.6,29.52,ESE,117,2.0,9.0,69,0.00,,,0.00,Wunderground v.1.15,2013-02-05 03:16:00,
2013-02-04 18:22:00,34.9,25.4,29.52,East,84,2.0,9.0,68,0.00,,,0.00,Wunderground v.1.15,2013-02-05 03:22:00,
2013-02-04 18:27:00,34.9,25.4,29.52,East,94,1.0,9.0,68,0.00,,,0.00,Wunderground v.1.15,2013-02-05 03:27:00,
2013-02-04 18:33:00,35.3,25.1,29.52,SSE,153,3.0,9.0,66,0.00,,,0.00,Wunderground v.1.15,2013-02-05 03:33:00,
2013-02-04 18:39:00,35.5,25.3,29.52,East,101,2.0,9.0,66,0.00,,,0.00,Wunderground v.1.15,2013-02-05 03:39:00,
2013-02-04 18:45:00,35.3,25.1,29.52,ENE,72,2.0,9.0,66,0.00,,,0.00,Wunderground v.1.15,2013-02-05 03:45:00,
2013-02-04 18:50:00,35.4,25.2,29.52,WSW,255,1.0,9.0,66,0.00,,,0.00,Wunderground v.1.15,2013-02-05 03:50:00,
2013-02-04 18:56:00,34.4,24.9,29.52,WSW,248,3.0,9.0,68,0.00,,,0.00,Wunderground v.1.15,2013-02-05 03:56:00,
2013-02-04 19:02:00,33.7,25.3,29.51,WSW,255,5.0,9.0,71,0.00,,,0.00,Wunderground v.1.15,2013-02-05 04:02:00,
2013-02-04 19:08:00,33.4,25.3,29.51,WSW,250,4.0,9.0,72,0.00,,,0.00,Wunderground v.1.15,2013-02-05 04:08:00,
2013-02-04 19:13:00,33.4,25.3,29.52,WSW,253,4.0,9.0,72,0.00,,,0.00,Wunderground v.1.15,2013-02-05 04:13:00,
2013-02-04 19:19:00,33.5,25.4,29.52,WSW,256,4.0,9.0,72,0.00,,,0.00,Wunderground v.1.15,2013-02-05 04:19:00,
2013-02-04 19:25:00,33.9,25.8,29.52,SW,235,4.0,9.0,72,0.00,,,0.00,Wunderground v.1.15,2013-02-05 04:25:00,
2013-02-04 19:31:00,34.1,26.0,29.52,WNW,288,5.0,9.0,72,0.00,,,0.00,Wunderground v.1.15,2013-02-05 04:31:00,
2013-02-04 19:36:00,33.5,25.4,29.52,NW,309,4.0,9.0,72,0.00,,,0.00,Wunderground v.1.15,2013-02-05 04:36:00,
2013-02-04 19:41:00,33.5,25.8,29.52,NW,319,4.0,9.0,73,0.00,,,0.00,Wunderground v.1.15,2013-02-05 04:41:00,
2013-02-04 19:47:00,33.6,25.9,29.52,West,269,3.0,9.0,73,0.00,,,0.00,Wunderground v.1.15,2013-02-05 04:47:00,
2013-02-04 19:53:00,34.4,26.0,29.52,WSW,248,3.0,9.0,71,0.00,,,0.00,Wunderground v.1.15,2013-02-05 04:53:00,
2013-02-04 19:59:00,34.6,25.8,29.52,SE,144,2.0,9.0,70,0.00,,,0.00,Wunderground v.1.15,2013-02-05 04:59:00,
2013-02-04 20:00:00,34.6,25.8,29.52,NNE,30,2.0,9.0,70,0.00,,,0.00,Wunderground v.1.15,2013-02-05 05:00:00,
2013-02-04 20:01:00,34.7,25.6,29.52,ENE,58,2.0,9.0,69,0.00,,,0.00,Wunderground v.1.15,2013-02-05 05:01:00,
2013-02-04 20:03:00,34.9,25.8,29.52,East,95,2.0,9.0,69,0.00,,,0.00,Wunderground v.1.15,2013-02-05 05:03:00,
2013-02-04 20:05:00,35.1,24.9,29.52,ENE,60,3.0,9.0,66,0.00,,,0.00,Wunderground v.1.15,2013-02-05 05:05:00,
2013-02-04 20:10:00,35.7,25.1,29.52,NNE,12,3.0,9.0,65,0.00,,,0.00,Wunderground v.1.15,2013-02-05 05:10:00,
2013-02-04 20:16:00,36.2,25.2,29.52,East,85,4.0,13.0,64,0.00,,,0.00,Wunderground v.1.15,2013-02-05 05:16:00,
2013-02-04 20:22:00,36.3,25.3,29.52,ENE,58,7.0,9.0,64,0.00,,,0.00,Wunderground v.1.15,2013-02-05 05:22:00,
2013-02-04 20:28:00,35.9,25.3,29.52,NE,53,3.0,9.0,65,0.00,,,0.00,Wunderground v.1.15,2013-02-05 05:28:00,
2013-02-04 20:33:00,35.7,25.4,29.52,NE,50,1.0,9.0,66,0.00,,,0.00,Wunderground v.1.15,2013-02-05 05:33:00,
2013-02-04 20:39:00,35.5,25.6,29.53,South,172,1.0,9.0,67,0.00,,,0.00,Wunderground v.1.15,2013-02-05 05:39:00,
2013-02-04 20:45:00,35.0,25.5,29.53,SSW,210,2.0,9.0,68,0.00,,,0.00,Wunderground v.1.15,2013-02-05 05:45:00,
2013-02-04 20:51:00,34.7,25.2,29.53,SW,217,3.0,9.0,68,0.00,,,0.00,Wunderground v.1.15,2013-02-05 05:51:00,
2013-02-04 20:56:00,34.7,25.2,29.53,SW,226,3.0,9.0,68,0.00,,,0.00,Wunderground v.1.15,2013-02-05 05:56:00,
2013-02-04 21:02:00,34.7,25.6,29.53,SW,229,2.0,9.0,69,0.00,,,0.00,Wunderground v.1.15,2013-02-05 06:02:00,
2013-02-04 21:08:00,34.8,25.7,29.53,WSW,239,2.0,9.0,69,0.00,,,0.00,Wunderground v.1.15,2013-02-05 06:08:00,
2013-02-04 21:14:00,34.8,25.3,29.53,NW,323,2.0,9.0,68,0.00,,,0.00,Wunderground v.1.15,2013-02-05 06:14:00,
2013-02-04 21:19:00,34.5,25.4,29.54,South,169,1.0,9.0,69,0.00,,,0.00,Wunderground v.1.15,2013-02-05 06:19:00,
2013-02-04 21:25:00,35.0,25.5,29.53,South,181,2.0,9.0,68,0.00,,,0.00,Wunderground v.1.15,2013-02-05 06:25:00,
2013-02-04 21:31:00,35.3,25.4,29.54,ENE,72,2.0,9.0,67,0.00,,,0.00,Wunderground v.1.15,2013-02-05 06:31:00,
2013-02-04 21:37:00,35.4,25.5,29.54,ENE,69,2.0,9.0,67,0.00,,,0.00,Wunderground v.1.15,2013-02-05 06:37:00,
2013-02-04 21:43:00,35.0,25.5,29.53,ENE,69,1.0,9.0,68,0.00,,,0.00,Wunderground v.1.15,2013-02-05 06:43:00,
2013-02-04 21:48:00,34.9,25.4,29.53,ENE,65,0.0,9.0,68,0.00,,,0.00,Wunderground v.1.15,2013-02-05 06:48:00,
2013-02-04 21:54:00,35.0,25.5,29.53,North,354,1.0,9.0,68,0.00,,,0.00,Wunderground v.1.15,2013-02-05 06:54:00,
2013-02-04 22:00:00,34.9,25.4,29.53,ENE,60,2.0,9.0,68,0.00,,,0.00,Wunderground v.1.15,2013-02-05 07:00:00,
2013-02-04 22:06:00,35.1,25.6,29.53,NNE,30,3.0,9.0,68,0.00,,,0.00,Wunderground v.1.15,2013-02-05 07:06:00,
2013-02-04 22:11:00,35.0,25.5,29.53,ENE,57,2.0,9.0,68,0.00,,,0.00,Wunderground v.1.15,2013-02-05 07:11:00,
2013-02-04 22:17:00,35.1,25.9,29.53,NNE,32,3.0,9.0,69,0.00,,,0.00,Wunderground v.1.15,2013-02-05 07:17:00,
2013-02-04 22:23:00,34.9,25.8,29.53,NE,53,3.0,9.0,69,0.00,,,0.00,Wunderground v.1.15,2013-02-05 07:23:00,
2013-02-04 22:29:00,35.0,25.5,29.53,ENE,65,3.0,10.0,68,0.00,,,0.00,Wunderground v.1.15,2013-02-05 07:29:00,
2013-02-04 22:34:00,35.2,25.7,29.53,ENE,65,5.0,10.0,68,0.00,,,0.00,Wunderground v.1.15,2013-02-05 07:34:00,
2013-02-04 22:40:00,35.3,25.8,29.53,ENE,71,7.0,9.0,68,0.00,,,0.00,Wunderground v.1.15,2013-02-05 07:40:00,
2013-02-04 22:46:00,35.3,25.8,29.53,ENE,72,8.0,12.0,68,0.00,,,0.00,Wunderground v.1.15,2013-02-05 07:46:00,
2013-02-04 22:52:00,35.2,25.3,29.53,ENE,65,7.0,10.0,67,0.00,,,0.00,Wunderground v.1.15,2013-02-05 07:52:00,
2013-02-04 22:58:00,35.4,25.2,29.53,NE,44,8.0,12.0,66,0.00,,,0.00,Wunderground v.1.15,2013-02-05 07:58:00,
2013-02-04 23:03:00,35.3,26.1,29.54,ENE,64,6.0,9.0,69,0.00,,,0.00,Wunderground v.1.15,2013-02-05 08:03:00,
2013-02-04 23:09:00,34.8,26.0,29.54,East,94,2.0,9.0,70,0.00,,,0.00,Wunderground v.1.15,2013-02-05 08:09:00,
2013-02-04 23:15:00,34.6,25.8,29.54,NE,36,2.0,9.0,70,0.00,,,0.00,Wunderground v.1.15,2013-02-05 08:15:00,
2013-02-04 23:21:00,34.5,26.1,29.54,North,9,2.0,9.0,71,0.00,,,0.00,Wunderground v.1.15,2013-02-05 08:21:00,
2013-02-04 23:27:00,34.4,26.0,29.54,NNE,25,3.0,9.0,71,0.00,,,0.00,Wunderground v.1.15,2013-02-05 08:27:00,
2013-02-04 23:33:00,34.4,25.6,29.54,NNE,20,3.0,9.0,70,0.00,,,0.00,Wunderground v.1.15,2013-02-05 08:33:00,
2013-02-04 23:39:00,34.4,25.6,29.54,ENE,72,2.0,9.0,70,0.00,,,0.00,Wunderground v.1.15,2013-02-05 08:39:00,
2013-02-04 23:44:00,34.3,25.9,29.54,ENE,60,2.0,9.0,71,0.00,,,0.00,Wunderground v.1.15,2013-02-05 08:44:00,
2013-02-04 23:50:00,34.1,25.7,29.53,ENE,78,2.0,2.0,71,0.00,,,0.00,Wunderground v.1.15,2013-02-05 08:50:00,
2013-02-04 23:56:00,34.1,25.3,29.54,NE,50,1.0,10.0,70,0.00,,,0.00,Wunderground v.1.15,2013-02-05 08:56:00,